Regional Weather Roundup
Issued by NWS Cleveland, OH

Home | Current Version | Previous Version | Graphics & Text | Print | Product List | Glossary On
Versions: 1 2 3 4 5 6 7 8 9 10 11 12 13 14 15 16 17 18 19 20 21 22 23 24 25 26 27 28 29 30 31 32 33 34 35 36 37 38 39 40 41 42 43 44 45 46 47 48 49 50
000
ASUS41 KCLE 251102
RWRCLE
OHIO REGIONAL WEATHER ROUNDUP
NATIONAL WEATHER SERVICE CLEVELAND, OH
700 AM EDT TUE APR 25 2017

NOTE: "FAIR" INDICATES FEW OR NO CLOUDS BELOW 12,000 FEET WITH NO
SIGNIFICANT WEATHER AND/OR OBSTRUCTIONS TO VISIBILITY.

OHZ001>008-015>018-024>027-034-035-043-044-251200-
   NORTHWEST OHIO

CITY           SKY/WX    TMP DP  RH WIND       PRES   REMARKS
DEFIANCE       CLOUDY    51  46  83 E6        29.84S
FINDLAY        CLOUDY    55  46  71 E3        29.84R
TOLEDO EXPRESS CLOUDY    54  47  77 E5        29.85R
TOLEDO EXEC    CLOUDY    54  50  86 NE7       29.86S
LIMA           CLOUDY    52  49  89 E7        29.83S
$$

OHZ009>014-019>023-028>033-038-089-251200-
   NORTHEAST OHIO

CITY           SKY/WX    TMP DP  RH WIND       PRES   REMARKS
CLE-HOPKINS    CLOUDY    57  44  62 SE14G20   29.89R
CLE-LAKEFRONT  CLOUDY    57  45  64 SE15      29.86R
CUY CO. ARPT   LGT RAIN  55  46  71 SE12      29.89
LORAIN-ELYRIA  CLOUDY    55  43  63 SE13      29.87R
ASHTABULA      LGT RAIN  54  42  64 SE8       29.93R
AKRON-CANTON   LGT RAIN  53  46  77 SE12      29.89R
WOOSTER        CLOUDY    53  45  74 SE10      29.88R
MANSFIELD      CLOUDY    53  46  77 SE16      29.85R
YOUNGSTOWN     CLOUDY    53  42  66 SE9       29.93R
$$

OHZ042-051>053-060>062-070>072-077>081-251200-
  SOUTHWEST OHIO

CITY           SKY/WX    TMP DP  RH WIND       PRES   REMARKS
CINC-COVINGTON MOCLDY    55  50  83 NE6       29.80R
CINC-LUNKEN    CLEAR     50  50 100 CALM      29.82R
HAMILTON       PTCLDY    50  49  96 CALM      29.82S
DAYTON         PTCLDY    48  45  89 N3        29.83R
WRIGHT-PAT AFB MOCLDY    51  49  92 CALM      29.83R
DAYTON GENERAL CLEAR     50  47  89 CALM      29.81R
WILMINGTON     CLOUDY    52  49  89 E6        29.81R
$$

OHZ036-037-039>041-045>050-054>059-063>069-073>076-082>088-251200-
  CENTRAL AND SOUTHEAST OHIO

CITY           SKY/WX    TMP DP  RH WIND       PRES   REMARKS
COLUMBUS       CLOUDY    55  48  77 E9        29.83R
OSU AIRPORT    CLOUDY    54  48  80 E9        29.83R
BOLTON FIELD   CLOUDY    54  47  78 E9        29.83S
RICKENBACK AFB CLOUDY    53  47  81 E3        29.83R
NEWARK         CLOUDY    55  46  71 E5        29.84S
MARION         CLOUDY    54  46  74 SE9       29.84R
LANCASTER      CLOUDY    55  47  74 CALM      29.84S
ZANESVILLE     CLOUDY    53  47  79 NE5       29.85R
NEW PHILLY     NOT AVBL
$$




USA.gov is the U.S. government's official web portal to all federal, state and local government web resources and services.